GW0115 Weather Reports


time (UTC)temp
F
wind
direction
speed
knots
gust
knots
rain 1hr
in
rain 24hr
in
rain mn
in
humidity
%
barometer
mb
20260906234556 60 0 0.0 0.0 0.00 0.00 0.00 78 1016.6
20260906233057 61 0 0.0 0.0 0.00 0.00 0.00 76 1016.6
20260906231613 62 0 0.0 0.0 0.00 0.00 0.00 74 1016.6
20260906230059 63 0 0.0 0.0 0.00 0.00 0.00 72 1016.6
20260906224604 64 0 0.0 0.0 0.00 0.00 0.00 69 1016.6
20260906223106 65 0 0.0 0.0 0.00 0.00 0.00 68 1016.6
20260906221609 65 0 0.0 0.0 0.00 0.00 0.00 66 1016.6
20260906220103 66 0 0.0 0.0 0.00 0.00 0.00 63 1016.7
20260906214608 67 0 0.0 2.6 0.00 0.00 0.00 63 1016.8
20260906213055 67 0 0.0 0.0 0.00 0.00 0.00 60 1016.7
20260906211555 68 0 0.0 5.2 0.00 0.00 0.00 58 1016.5
20260906210111 68 0 0.0 2.6 0.00 0.00 0.00 61 1016.4
20260906204604 68 0 0.0 1.7 0.00 0.00 0.00 62 1016.2
20260906203101 68 0 0.0 5.2 0.00 0.00 0.00 58 1016.3
20260906201636 69 0 0.0 3.5 0.00 0.00 0.00 60 1016.5
20260906200105 69 0 0.0 6.1 0.00 0.00 0.00 59 1016.5
20260906194609 69 0 0.0 4.3 0.00 0.00 0.00 59 1016.5
20260906193102 69 82 0.0 4.3 0.00 0.00 0.00 61 1016.5
20260906191610 69 0 0.9 8.7 0.00 0.00 0.00 59 1016.5
20260906190120 69 0 0.0 7.8 0.00 0.00 0.00 62 1016.6
20260906184606 69 0 0.0 6.1 0.00 0.00 0.00 62 1016.7
20260906183105 70 0 0.0 7.0 0.00 0.00 0.00 64 1016.8
20260906181633 70 0 0.0 7.0 0.00 0.00 0.00 67 1017.1
20260906180108 70 78 0.0 4.3 0.00 0.00 0.00 66 1017.0
20260906174611 69 0 0.0 7.8 0.00 0.00 0.00 66 1017.1
20260906173056 69 0 0.9 6.1 0.00 0.00 0.00 65 1017.2
20260906171555 70 0 0.0 6.1 0.00 0.00 0.00 68 1017.4
20260906170055 69 67 0.0 7.8 0.00 0.00 0.00 67 1017.3
20260906164556 69 90 0.9 6.1 0.00 0.00 0.00 67 1017.4
20260906163109 69 40 0.9 7.8 0.00 0.00 0.00 68 1017.4
20260906161608 69 17 0.9 6.1 0.00 0.00 0.00 68 1017.5
20260906160058 68 0 0.9 6.1 0.00 0.00 0.00 70 1017.4
20260906154554 67 76 0.0 7.0 0.00 0.00 0.00 72 1017.5
20260906153059 67 0 0.0 7.8 0.00 0.00 0.00 73 1017.7
20260906151557 66 0 0.0 7.0 0.00 0.00 0.00 74 1017.8
20260906150055 65 0 0.9 6.1 0.00 0.00 0.00 79 1017.9
20260906144551 63 0 0.0 1.7 0.00 0.00 0.00 80 1017.9
20260906143059 60 0 0.0 0.9 0.00 0.00 0.00 83 1017.9
20260906141601 60 0 0.0 4.3 0.00 0.00 0.00 85 1017.7
20260906140108 60 0 0.0 2.6 0.00 0.00 0.00 85 1017.6
20260906134610 60 0 0.0 0.0 0.00 0.00 0.00 84 1017.4
20260906133113 60 0 0.0 6.1 0.00 0.00 0.00 84 1017.3
20260906131606 61 0 0.0 0.9 0.00 0.00 0.00 84 1017.2
20260906130113 61 0 0.0 3.5 0.00 0.00 0.00 84 1017.1
20260906124605 60 0 0.0 2.6 0.00 0.00 0.00 85 1017.0
20260906123057 59 0 0.0 0.0 0.00 0.00 0.00 86 1016.9
20260906121611 59 0 0.0 0.0 0.00 0.00 0.00 86 1016.7
20260906120101 59 0 0.0 0.0 0.00 0.00 0.00 86 1016.6
20260906114607 58 0 0.0 0.0 0.00 0.00 0.00 86 1016.6
20260906113107 58 0 0.0 0.0 0.00 0.00 0.00 86 1016.3
20260906111603 58 0 0.0 0.0 0.00 0.00 0.00 87 1016.3
20260906110057 58 0 0.0 0.0 0.00 0.00 0.00 86 1016.1
20260906104556 58 0 0.0 0.0 0.00 0.00 0.00 86 1015.9
20260906103052 58 0 0.0 1.7 0.00 0.00 0.00 87 1015.8
20260906101559 58 0 0.0 0.0 0.00 0.00 0.00 87 1015.5
20260906100056 58 0 0.0 0.0 0.00 0.00 0.00 86 1015.5
20260906094557 59 0 0.0 0.0 0.00 0.00 0.00 85 1015.4
20260906093057 59 0 0.0 0.0 0.00 0.00 0.00 85 1015.3
20260906091551 60 0 0.0 1.7 0.00 0.00 0.00 86 1015.2
20260906090109 60 0 0.0 0.0 0.00 0.00 0.00 86 1015.0
20260906084603 60 0 0.0 0.9 0.00 0.00 0.00 87 1014.8
20260906083103 61 0 0.0 1.7 0.00 0.00 0.00 86 1014.6
20260906081555 61 0 0.0 3.5 0.00 0.00 0.00 85 1014.6
20260906080106 61 0 0.0 7.0 0.00 0.00 0.00 84 1014.6
20260906074556 62 0 0.0 1.7 0.00 0.00 0.00 84 1014.4
20260906073057 62 0 0.0 0.0 0.00 0.00 0.00 84 1014.3
20260906071554 62 0 0.0 0.0 0.00 0.00 0.00 84 1014.2
20260906070057 62 0 0.0 0.0 0.00 0.00 0.00 84 1013.9
20260906064555 63 0 0.0 0.0 0.00 0.00 0.00 83 1013.9
20260906063057 63 0 0.0 0.0 0.00 0.00 0.00 84 1013.8
20260906061556 63 0 0.0 0.0 0.00 0.00 0.00 84 1013.9
20260906060133 63 0 0.0 0.0 0.00 0.00 0.00 85 1013.9
20260906054613 63 0 0.0 0.0 0.00 0.00 0.00 85 1013.9
20260906053055 63 0 0.0 0.0 0.00 0.00 0.00 85 1013.8
20260906051605 63 0 0.0 0.0 0.00 0.00 0.00 86 1014.0
20260906050109 63 0 0.0 0.0 0.00 0.00 0.00 86 1013.9
20260906044556 63 0 0.0 0.0 0.00 0.00 0.00 85 1014.0
20260906043057 64 0 0.0 0.0 0.00 0.00 0.00 84 1014.0
20260906041553 64 0 0.0 0.0 0.00 0.00 0.00 83 1014.0
20260906034601 64 0 0.0 0.0 0.00 0.00 0.00 83 1013.9
20260906033054 65 0 0.0 0.0 0.00 0.00 0.00 83 1013.8
20260906031617 65 0 0.0 0.0 0.00 0.00 0.00 83 1013.7
20260906030056 65 0 0.0 0.0 0.00 0.00 0.00 83 1013.6
20260906024556 65 0 0.0 0.0 0.00 0.00 0.00 83 1013.6
20260906023109 65 0 0.0 0.0 0.00 0.00 0.00 83 1013.5
20260906021558 64 0 0.0 4.3 0.00 0.00 0.00 83 1013.5
20260906020059 64 0 0.0 0.0 0.00 0.00 0.00 83 1013.5
20260906014553 65 0 0.0 0.0 0.00 0.00 0.00 83 1013.5
20260906013058 65 0 0.0 0.9 0.00 0.00 0.00 82 1013.6
20260906011603 65 0 0.0 0.9 0.00 0.00 0.00 83 1013.6
20260906010059 65 0 0.0 0.0 0.00 0.00 0.00 83 1013.5
20260906004602 65 0 0.0 0.0 0.00 0.00 0.00 83 1013.4
20260906003058 65 0 0.0 2.6 0.00 0.00 0.00 84 1013.3
20260906001554 65 0 0.0 0.0 0.00 0.00 0.00 84 1013.3
20260906000110 66 0 0.0 0.0 0.00 0.00 0.00 81 1013.3